SCP
0 -1 -1 -1 -0 -0 -0 0 -0 -0 -0 -1 -1 -1 -1 -0 -0 -0 -0 -0 -0 -0 -0 -0 -0 -0 -0 -0 -0 -0 -0 -0 -0 0 0 0 0 0 0 0 0 0 0
0 -0 -0 -0 -0 -0 -0 -0 0 0 -0 -0 -1 -1 -0 -0 -0 -0 -0 -0 -0 -0 -0 -0 -0 -0 -0 -0 -0 0 0 0 0 0 0 -0 0 0 0 0 0 0 0
0 -0 -0 -0 -0 -0 -0 -0 0 0 -0 -0 -0 -0 -0 -0 -0 -0 -0 -0 -0 -0 -0 -0 -0 -0 -0 -0 0 0 0 0 0 0 0 -0 -0 -0 0 0 0 0 0
0 0 -0 -0 -0 -0 0 0 0 0 0 -0 -0 -0 -0 -0 -0 -0 -0 -0 -0 -0 -0 -0 -0 0 0 0 0 0 0 0 0 0 -0 -0 0 -0 0 0 0 0 0
0 0 -0 0 0 -0 0 0 0 0 0 -0 -0 -0 -0 -0 -0 0 0 0 0 0 0 0 0 0 0 0 0 0 0 0 0 -0 -0 0 0 -0 0 0 0 0 0
0 0 0 0 0 0 0 0 0 0 0 0 -0 -0 0 0 0 0 0 0 0 0 0 0 0 0 0 0 0 0 0 0 0 -0 0 0 0 0 0 0 0 0 0
0 0 0 0 0 0 0 0 0 0 0 0 0 0 0 0 0 0 0 0 0 0 0 0 0 0 0 0 0 0 0 0 0 0 0 0 0 0 0 0 0 0 1
1 0 1 1 0 0 0 0 0 0 0 0 0 0 0 0 0 0 0 0 0 0 0 0 0 0 0 0 0 0 0 0 0 0 0 0 0 0 0 0 0 1 1
1 1 1 0 1 1 1 1 1 1 1 0 0 0 0 0 0 0 0 0 0 0 0 0 0 0 0 0 0 0 0 0 0 0 0 0 0 0 0 1 0 1 0
0 1 1 1 1 0 1 1 1 1 1 1 1 0 0 0 0 0 0 0 0 0 0 0 0 0 0 0 0 0 0 0 0 0 0 0 0 0 0 1 1 0 0
0 0 1 1 1 1 1 1 1 1 1 1 1 1 0 0 0 0 0 0 0 0 0 0 0 0 0 0 0 0 0 0 0 0 0 0 0 0 1 1 0 0 0
0 0 0 2 2 2 2 1 1 1 1 1 1 0 0 0 0 0 0 1 1 0 0 0 0 0 0 0 0 0 0 0 0 0 0 0 0 1 0 0 0 0 0
0 0 0 0 3 3 2 2 2 2 1 1 1 1 1 0 0 0 0 0 0 0 0 0 0 0 0 0 0 0 0 0 0 0 0 0 1 1 0 0 0 0 0
0 0 0 0 0 1 1 2 2 2 2 1 1 1 1 1 1 1 0 0 0 0 0 0 0 0 0 0 0 0 0 0 0 0 0 0 1 1 0 0 0 0 0
0 0 0 0 0 0 1 1 2 2 2 1 1 1 1 1 1 1 1 0 0 0 0 0 0 0 0 0 0 0 0 0 0 0 0 1 1 1 1 0 0 0 0
0 0 0 0 0 0 0 1 2 3 2 2 2 2 1 1 1 1 1 1 0 0 0 0 0 0 0 0 0 0 0 0 0 0 0 1 1 1 1 0 0 0 0
0 0 0 0 0 0 0 1 1 1 1 2 2 2 1 2 1 1 1 1 1 1 0 0 0 0 0 0 0 0 0 0 0 0 0 0 1 1 1 1 0 0 0
0 0 0 0 0 0 0 1 1 1 1 1 2 2 1 1 1 1 1 1 1 1 1 0 0 0 0 0 0 0 0 0 0 0 1 1 1 2 1 1 1 0 0
0 0 0 0 0 0 0 0 1 1 2 1 2 2 2 2 1 2 1 1 1 1 1 1 0 0 0 1 0 0 0 0 0 0 1 1 1 1 1 0 1 0 0
0 0 0 0 0 0 0 0 0 1 1 1 2 2 2 2 2 2 2 1 1 1 1 1 1 1 0 1 0 0 0 1 1 1 1 1 1 1 1 1 0 0 0
0 0 0 0 0 0 0 0 0 0 1 1 1 1 2 3 2 2 1 1 1 1 1 1 1 1 0 1 1 1 3 2 2 2 2 2 1 1 1 0 0 0 0
0 0 0 0 0 0 0 0 0 0 0 0 0 1 2 2 2 2 1 1 1 0 0 1 1 2 1 0 3 1 3 1 1 0 0 1 0 0 0 0 0 0 0
0 0 0 0 0 0 0 0 1 1 2 2 1 1 1 1 2 1 1 0 0 1 0 1 1 1 1 1 3 3 3 1 1 0 0 0 0 0 0 0 0 0 0
0 0 0 0 0 0 0 0 1 1 1 0 1 1 1 1 1 0 0 0 0 0 1 1 2 2 2 1 3 3 2 3 2 0 0 0 0 0 0 0 0 0 0
0 0 0 0 1 1 0 0 0 0 1 1 0 1 1 1 1 1 1 0 0 -0 0 0 1 2 3 3 4 5 4 3 2 1 0 0 0 0 0 0 0 0 0
0 0 0 0 0 1 1 1 1 1 1 0 0 1 1 0 0 1 1 1 0 0 0 0 1 1 1 1 3 2 1 0 0 0 0 0 0 0 0 0 0 0 0
Wind_Speed_500mb
14 20 22 21 20 19 15 13 12 10 10 10 17 18 16 13 14 12 13 15 18 23 26 27 26 25 26 24 19 13 10 10 10 13 15 17 17 14 12 11 10 10 4
15 20 21 21 20 18 15 11 9 10 6 8 14 19 16 12 13 15 15 17 19 23 25 23 22 24 24 23 19 15 12 11 11 14 16 16 13 12 9 6 6 7 1
12 19 22 21 22 20 16 13 9 9 7 9 12 18 19 16 16 17 16 17 19 22 24 21 20 22 23 21 18 17 15 14 13 16 17 12 11 11 10 7 3 2 2
9 19 27 24 22 18 15 12 10 10 9 9 10 16 19 18 18 19 17 17 18 23 25 22 20 19 19 19 19 18 18 17 16 18 17 12 15 20 14 14 11 9 9
4 16 27 24 23 21 17 14 14 14 12 9 10 13 18 19 20 21 20 19 20 23 27 25 22 18 16 17 18 18 18 18 18 18 16 20 19 23 18 15 17 17 16
9 13 18 24 21 20 19 18 16 14 13 12 12 12 15 18 21 23 23 22 22 24 28 27 24 22 22 21 20 19 20 19 18 13 22 22 27 29 22 17 17 22 22
7 10 14 19 20 21 20 19 17 16 15 15 15 15 15 17 20 22 24 25 25 26 27 28 27 27 28 27 24 23 23 22 18 17 20 22 22 35 27 23 20 19 22
5 8 11 18 20 21 21 20 19 19 19 18 18 17 17 18 20 23 26 27 27 27 29 30 29 29 29 29 27 27 26 24 20 19 21 21 28 29 28 26 22 19 20
4 2 4 10 23 25 24 23 22 22 22 22 22 21 21 20 22 24 27 29 30 30 31 32 32 31 31 32 31 30 28 26 24 19 22 18 30 21 18 18 15 15 19
6 5 7 10 14 18 21 27 26 26 26 26 27 26 25 25 27 28 29 31 32 33 34 34 33 33 34 34 34 32 31 28 25 21 22 19 20 15 15 16 15 17 20
14 14 12 14 15 17 19 26 29 32 32 33 33 33 31 31 29 32 33 35 34 35 37 38 38 36 35 33 33 34 32 23 23 23 21 29 19 19 19 17 18 19 22
17 16 19 20 18 19 19 21 24 24 29 34 37 37 37 32 29 29 33 36 37 39 39 41 42 40 39 29 29 34 32 24 25 24 23 31 22 23 21 18 19 22 22
23 22 21 23 24 25 27 23 22 25 24 27 32 35 33 31 32 32 30 32 39 41 40 37 42 43 35 31 31 30 28 28 25 25 25 31 25 23 21 19 22 23 22
23 22 23 25 28 30 27 32 28 30 28 27 29 34 34 33 34 36 31 30 31 29 32 34 34 35 36 36 34 32 31 30 29 26 28 29 24 25 24 23 24 24 22
29 29 28 27 34 33 35 34 34 34 33 29 30 33 34 35 36 36 39 36 32 30 33 33 35 36 36 37 37 35 34 33 32 31 28 30 29 30 27 27 26 26 24
31 35 38 37 34 40 44 40 37 36 34 34 30 31 34 35 36 36 42 45 42 34 34 36 33 35 37 38 39 37 36 34 33 32 31 33 32 38 28 31 30 28 29
31 34 36 39 39 37 44 47 38 42 40 36 34 41 39 34 37 37 36 46 42 36 35 37 37 37 38 39 41 39 37 36 35 34 33 34 35 40 36 33 35 32 33
32 34 40 41 43 44 42 50 42 36 40 40 35 30 32 33 37 39 35 38 46 38 45 41 40 38 40 39 39 40 38 37 36 35 33 34 37 33 41 35 39 37 37
37 39 36 41 52 55 50 44 46 43 39 39 39 35 33 34 30 34 38 33 38 43 52 51 45 42 44 41 39 37 38 39 38 37 37 34 35 37 35 40 41 39 40
36 40 45 44 44 49 58 57 46 44 44 42 42 41 39 34 31 34 38 38 38 38 43 53 53 52 52 48 41 40 40 38 38 36 31 28 33 41 40 33 39 38 43
38 40 41 47 51 53 52 45 44 45 45 43 41 40 39 37 35 34 34 37 38 38 43 47 59 61 69 52 47 40 32 32 32 32 29 31 29 35 35 45 42 37 39
42 46 44 43 48 46 43 45 45 42 47 42 36 33 36 38 39 43 40 38 44 46 49 49 54 63 56 54 52 44 35 32 29 28 32 31 29 26 26 30 23 34 39
47 50 53 48 40 37 41 40 36 35 37 36 33 32 33 38 39 39 29 43 46 49 55 57 60 60 68 59 62 49 30 38 30 19 33 23 32 25 24 39 33 37 27
47 49 51 54 47 32 25 27 37 40 44 42 34 25 25 35 31 30 41 39 41 43 53 52 58 61 55 71 64 64 64 26 29 19 20 34 35 28 30 22 31 32 27
43 50 51 55 52 43 25 21 26 32 36 32 30 22 27 32 37 42 34 30 37 39 43 48 55 65 67 68 71 64 65 69 67 34 24 28 37 38 32 26 20 20 27
38 40 46 55 55 53 39 16 17 23 32 32 31 30 34 35 35 31 29 30 34 42 43 42 52 53 60 64 69 81 82 74 66 60 44 39 32 30 29 26 32 27 28
Wind_Direction_500mb
162 191 185 186 188 185 184 169 160 150 156 189 193 190 183 169 164 174 177 166 163 170 172 167 168 174 182 188 195 205 207 208 200 179 174 164 156 145 136 118 108 59 62
179 198 190 188 190 193 188 183 172 166 187 220 214 203 204 197 188 189 186 177 171 175 174 170 172 182 189 193 201 215 220 215 211 193 184 173 178 176 170 150 101 178 87
170 206 195 191 192 200 200 196 194 206 239 244 226 214 213 214 209 205 194 186 184 186 184 187 188 189 194 204 216 227 228 227 221 211 199 199 251 247 226 223 203 176 295
195 207 203 194 196 205 214 207 211 231 243 244 225 219 221 217 216 212 205 200 198 195 194 197 197 198 206 212 221 233 241 240 232 224 214 232 236 265 250 249 252 253 277
102 185 203 199 199 208 219 221 228 235 238 236 230 225 227 223 219 215 216 212 206 203 204 205 207 214 218 222 231 240 245 244 241 236 234 241 245 260 264 261 262 262 270
91 147 186 193 203 212 218 223 234 239 240 232 230 234 227 226 223 220 219 218 215 212 212 215 219 230 236 240 245 246 249 252 251 257 255 251 239 242 255 265 277 263 266
99 151 191 201 211 219 223 228 236 242 245 246 238 235 237 235 230 228 224 223 221 219 220 223 228 236 242 242 247 252 255 256 256 261 259 256 250 252 252 262 282 264 261
75 143 219 224 227 230 232 233 234 239 243 246 249 248 247 241 237 235 233 232 230 227 228 231 234 238 242 244 250 254 257 259 261 267 261 259 257 262 253 259 267 255 267
29 35 236 242 244 244 247 245 243 244 245 246 247 248 249 249 245 241 240 240 239 236 236 237 239 242 242 246 252 255 258 258 258 259 262 266 263 257 248 240 239 245 267
312 300 265 241 247 245 258 255 257 253 250 248 249 249 247 248 248 244 241 242 243 243 242 242 243 246 247 249 253 257 260 263 267 255 259 242 252 238 236 226 233 256 276
292 275 263 247 250 237 237 262 262 261 257 251 247 245 245 246 246 247 245 243 242 245 246 245 246 248 249 250 256 260 262 261 254 257 250 249 244 246 234 228 245 271 291
297 291 272 270 258 253 244 242 264 250 259 256 251 248 247 239 235 236 242 252 248 246 247 247 247 249 249 250 268 266 262 250 250 251 245 252 253 248 230 240 274 290 297
291 287 278 269 263 250 261 260 257 254 244 245 241 240 242 235 242 243 237 252 248 248 247 256 249 250 246 244 244 246 247 250 251 251 252 256 255 240 227 254 275 287 289
291 284 271 270 265 268 256 264 255 250 251 242 246 240 236 243 242 239 237 241 245 242 247 243 243 241 238 241 245 248 251 247 248 251 255 258 234 229 241 255 270 276 279
293 286 270 272 263 261 264 258 254 249 257 252 245 249 239 243 243 244 250 247 243 246 245 244 243 243 246 245 245 247 248 245 245 246 250 251 232 227 241 252 260 267 269
292 283 274 270 277 268 263 256 253 251 248 251 247 246 250 242 247 246 256 259 258 249 244 246 246 246 251 246 247 245 243 240 244 242 247 255 247 232 241 246 256 260 266
309 287 279 275 268 272 263 262 251 251 256 248 249 263 264 246 245 244 252 264 262 247 245 248 243 243 243 244 245 244 244 240 238 247 243 239 248 232 236 245 256 259 263
321 298 280 282 276 271 270 256 248 247 249 250 245 250 260 264 250 253 256 262 264 258 248 249 252 247 243 240 242 243 244 242 245 246 243 234 236 226 230 239 255 254 261
316 313 304 285 278 276 273 263 246 244 247 242 247 245 247 253 248 260 266 265 272 267 259 253 248 247 244 238 238 239 237 241 243 246 242 234 231 225 231 246 249 250 253
335 312 303 300 293 279 268 263 248 240 243 243 241 247 248 248 252 259 270 273 271 268 265 260 249 242 248 242 234 235 239 237 236 235 236 232 233 241 238 231 244 241 247
351 340 320 301 294 287 267 249 244 241 237 234 240 244 242 248 251 255 263 267 267 265 266 265 258 249 239 244 240 230 235 225 222 222 230 235 221 226 233 237 235 229 235
357 354 344 327 304 289 265 244 237 242 237 238 238 243 247 255 261 259 264 267 267 266 264 260 256 248 243 233 236 233 217 225 228 224 231 230 226 221 225 238 210 229 240
358 357 354 346 330 300 273 239 231 229 224 227 230 240 253 254 248 265 283 291 278 267 264 259 264 253 246 235 234 227 226 236 214 218 223 206 225 206 196 217 221 209 202
355 356 358 358 352 333 277 234 225 231 231 232 232 235 245 253 249 261 282 282 280 281 267 263 251 253 254 243 238 233 225 240 202 189 213 220 219 218 205 196 215 218 225
345 352 357 1 2 356 317 236 232 234 229 217 209 225 265 250 258 264 269 273 282 292 279 268 265 258 258 249 236 234 232 222 223 221 195 201 202 213 215 215 195 210 223
332 344 351 359 1 7 360 324 246 231 225 211 208 245 264 248 264 274 271 278 287 291 296 290 273 262 261 256 250 233 233 236 238 225 212 209 194 193 197 206 208 207 238
Wind_Speed_850mb
14 20 22 21 20 19 15 13 12 10 10 10 17 18 16 13 14 12 13 15 18 23 26 27 26 25 26 24 19 13 10 10 10 13 15 17 17 14 12 11 10 10 4
15 20 21 21 20 18 15 11 9 10 6 8 14 19 16 12 13 15 15 17 19 23 25 23 22 24 24 23 19 15 12 11 11 14 16 16 13 12 9 6 6 7 1
12 19 22 21 22 20 16 13 9 9 7 9 12 18 19 16 16 17 16 17 19 22 24 21 20 22 23 21 18 17 15 14 13 16 17 12 11 11 10 7 3 2 2
9 19 27 24 22 18 15 12 10 10 9 9 10 16 19 18 18 19 17 17 18 23 25 22 20 19 19 19 19 18 18 17 16 18 17 12 15 20 14 14 11 9 9
4 16 27 24 23 21 17 14 14 14 12 9 10 13 18 19 20 21 20 19 20 23 27 25 22 18 16 17 18 18 18 18 18 18 16 20 19 23 18 15 17 17 16
9 13 18 24 21 20 19 18 16 14 13 12 12 12 15 18 21 23 23 22 22 24 28 27 24 22 22 21 20 19 20 19 18 13 22 22 27 29 22 17 17 22 22
7 10 14 19 20 21 20 19 17 16 15 15 15 15 15 17 20 22 24 25 25 26 27 28 27 27 28 27 24 23 23 22 18 17 20 22 22 35 27 23 20 19 22
5 8 11 18 20 21 21 20 19 19 19 18 18 17 17 18 20 23 26 27 27 27 29 30 29 29 29 29 27 27 26 24 20 19 21 21 28 29 28 26 22 19 20
4 2 4 10 23 25 24 23 22 22 22 22 22 21 21 20 22 24 27 29 30 30 31 32 32 31 31 32 31 30 28 26 24 19 22 18 30 21 18 18 15 15 19
6 5 7 10 14 18 21 27 26 26 26 26 27 26 25 25 27 28 29 31 32 33 34 34 33 33 34 34 34 32 31 28 25 21 22 19 20 15 15 16 15 17 20
14 14 12 14 15 17 19 26 29 32 32 33 33 33 31 31 29 32 33 35 34 35 37 38 38 36 35 33 33 34 32 23 23 23 21 29 19 19 19 17 18 19 22
17 16 19 20 18 19 19 21 24 24 29 34 37 37 37 32 29 29 33 36 37 39 39 41 42 40 39 29 29 34 32 24 25 24 23 31 22 23 21 18 19 22 22
23 22 21 23 24 25 27 23 22 25 24 27 32 35 33 31 32 32 30 32 39 41 40 37 42 43 35 31 31 30 28 28 25 25 25 31 25 23 21 19 22 23 22
23 22 23 25 28 30 27 32 28 30 28 27 29 34 34 33 34 36 31 30 31 29 32 34 34 35 36 36 34 32 31 30 29 26 28 29 24 25 24 23 24 24 22
29 29 28 27 34 33 35 34 34 34 33 29 30 33 34 35 36 36 39 36 32 30 33 33 35 36 36 37 37 35 34 33 32 31 28 30 29 30 27 27 26 26 24
31 35 38 37 34 40 44 40 37 36 34 34 30 31 34 35 36 36 42 45 42 34 34 36 33 35 37 38 39 37 36 34 33 32 31 33 32 38 28 31 30 28 29
31 34 36 39 39 37 44 47 38 42 40 36 34 41 39 34 37 37 36 46 42 36 35 37 37 37 38 39 41 39 37 36 35 34 33 34 35 40 36 33 35 32 33
32 34 40 41 43 44 42 50 42 36 40 40 35 30 32 33 37 39 35 38 46 38 45 41 40 38 40 39 39 40 38 37 36 35 33 34 37 33 41 35 39 37 37
37 39 36 41 52 55 50 44 46 43 39 39 39 35 33 34 30 34 38 33 38 43 52 51 45 42 44 41 39 37 38 39 38 37 37 34 35 37 35 40 41 39 40
36 40 45 44 44 49 58 57 46 44 44 42 42 41 39 34 31 34 38 38 38 38 43 53 53 52 52 48 41 40 40 38 38 36 31 28 33 41 40 33 39 38 43
38 40 41 47 51 53 52 45 44 45 45 43 41 40 39 37 35 34 34 37 38 38 43 47 59 61 69 52 47 40 32 32 32 32 29 31 29 35 35 45 42 37 39
42 46 44 43 48 46 43 45 45 42 47 42 36 33 36 38 39 43 40 38 44 46 49 49 54 63 56 54 52 44 35 32 29 28 32 31 29 26 26 30 23 34 39
47 50 53 48 40 37 41 40 36 35 37 36 33 32 33 38 39 39 29 43 46 49 55 57 60 60 68 59 62 49 30 38 30 19 33 23 32 25 24 39 33 37 27
47 49 51 54 47 32 25 27 37 40 44 42 34 25 25 35 31 30 41 39 41 43 53 52 58 61 55 71 64 64 64 26 29 19 20 34 35 28 30 22 31 32 27
43 50 51 55 52 43 25 21 26 32 36 32 30 22 27 32 37 42 34 30 37 39 43 48 55 65 67 68 71 64 65 69 67 34 24 28 37 38 32 26 20 20 27
38 40 46 55 55 53 39 16 17 23 32 32 31 30 34 35 35 31 29 30 34 42 43 42 52 53 60 64 69 81 82 74 66 60 44 39 32 30 29 26 32 27 28
Wind_Direction_850mb
162 191 185 186 188 185 184 169 160 150 156 189 193 190 183 169 164 174 177 166 163 170 172 167 168 174 182 188 195 205 207 208 200 179 174 164 156 145 136 118 108 59 62
179 198 190 188 190 193 188 183 172 166 187 220 214 203 204 197 188 189 186 177 171 175 174 170 172 182 189 193 201 215 220 215 211 193 184 173 178 176 170 150 101 178 87
170 206 195 191 192 200 200 196 194 206 239 244 226 214 213 214 209 205 194 186 184 186 184 187 188 189 194 204 216 227 228 227 221 211 199 199 251 247 226 223 203 176 295
195 207 203 194 196 205 214 207 211 231 243 244 225 219 221 217 216 212 205 200 198 195 194 197 197 198 206 212 221 233 241 240 232 224 214 232 236 265 250 249 252 253 277
102 185 203 199 199 208 219 221 228 235 238 236 230 225 227 223 219 215 216 212 206 203 204 205 207 214 218 222 231 240 245 244 241 236 234 241 245 260 264 261 262 262 270
91 147 186 193 203 212 218 223 234 239 240 232 230 234 227 226 223 220 219 218 215 212 212 215 219 230 236 240 245 246 249 252 251 257 255 251 239 242 255 265 277 263 266
99 151 191 201 211 219 223 228 236 242 245 246 238 235 237 235 230 228 224 223 221 219 220 223 228 236 242 242 247 252 255 256 256 261 259 256 250 252 252 262 282 264 261
75 143 219 224 227 230 232 233 234 239 243 246 249 248 247 241 237 235 233 232 230 227 228 231 234 238 242 244 250 254 257 259 261 267 261 259 257 262 253 259 267 255 267
29 35 236 242 244 244 247 245 243 244 245 246 247 248 249 249 245 241 240 240 239 236 236 237 239 242 242 246 252 255 258 258 258 259 262 266 263 257 248 240 239 245 267
312 300 265 241 247 245 258 255 257 253 250 248 249 249 247 248 248 244 241 242 243 243 242 242 243 246 247 249 253 257 260 263 267 255 259 242 252 238 236 226 233 256 276
292 275 263 247 250 237 237 262 262 261 257 251 247 245 245 246 246 247 245 243 242 245 246 245 246 248 249 250 256 260 262 261 254 257 250 249 244 246 234 228 245 271 291
297 291 272 270 258 253 244 242 264 250 259 256 251 248 247 239 235 236 242 252 248 246 247 247 247 249 249 250 268 266 262 250 250 251 245 252 253 248 230 240 274 290 297
291 287 278 269 263 250 261 260 257 254 244 245 241 240 242 235 242 243 237 252 248 248 247 256 249 250 246 244 244 246 247 250 251 251 252 256 255 240 227 254 275 287 289
291 284 271 270 265 268 256 264 255 250 251 242 246 240 236 243 242 239 237 241 245 242 247 243 243 241 238 241 245 248 251 247 248 251 255 258 234 229 241 255 270 276 279
293 286 270 272 263 261 264 258 254 249 257 252 245 249 239 243 243 244 250 247 243 246 245 244 243 243 246 245 245 247 248 245 245 246 250 251 232 227 241 252 260 267 269
292 283 274 270 277 268 263 256 253 251 248 251 247 246 250 242 247 246 256 259 258 249 244 246 246 246 251 246 247 245 243 240 244 242 247 255 247 232 241 246 256 260 266
309 287 279 275 268 272 263 262 251 251 256 248 249 263 264 246 245 244 252 264 262 247 245 248 243 243 243 244 245 244 244 240 238 247 243 239 248 232 236 245 256 259 263
321 298 280 282 276 271 270 256 248 247 249 250 245 250 260 264 250 253 256 262 264 258 248 249 252 247 243 240 242 243 244 242 245 246 243 234 236 226 230 239 255 254 261
316 313 304 285 278 276 273 263 246 244 247 242 247 245 247 253 248 260 266 265 272 267 259 253 248 247 244 238 238 239 237 241 243 246 242 234 231 225 231 246 249 250 253
335 312 303 300 293 279 268 263 248 240 243 243 241 247 248 248 252 259 270 273 271 268 265 260 249 242 248 242 234 235 239 237 236 235 236 232 233 241 238 231 244 241 247
351 340 320 301 294 287 267 249 244 241 237 234 240 244 242 248 251 255 263 267 267 265 266 265 258 249 239 244 240 230 235 225 222 222 230 235 221 226 233 237 235 229 235
357 354 344 327 304 289 265 244 237 242 237 238 238 243 247 255 261 259 264 267 267 266 264 260 256 248 243 233 236 233 217 225 228 224 231 230 226 221 225 238 210 229 240
358 357 354 346 330 300 273 239 231 229 224 227 230 240 253 254 248 265 283 291 278 267 264 259 264 253 246 235 234 227 226 236 214 218 223 206 225 206 196 217 221 209 202
355 356 358 358 352 333 277 234 225 231 231 232 232 235 245 253 249 261 282 282 280 281 267 263 251 253 254 243 238 233 225 240 202 189 213 220 219 218 205 196 215 218 225
345 352 357 1 2 356 317 236 232 234 229 217 209 225 265 250 258 264 269 273 282 292 279 268 265 258 258 249 236 234 232 222 223 221 195 201 202 213 215 215 195 210 223
332 344 351 359 1 7 360 324 246 231 225 211 208 245 264 248 264 274 271 278 287 291 296 290 273 262 261 256 250 233 233 236 238 225 212 209 194 193 197 206 208 207 238